Albuquerque, NM

1:20 AM MDT on September 29, 2016 (GMT -0600)
Albuquerque International Sunport

Weather History for KABQ - September, 2013

Change the Weather History Date:

Friday, September 6, 2013

  Actual Average Record
Temperature  
Mean Temperature 77 °F 73 °F  
Max Temperature 89 °F 84 °F 98 °F (1979)
Min Temperature 64 °F 61 °F 46 °F (1912)
Degree Days  
Heating Degree Days 0 0  
Month to date heating degree days 0 0  
Since 1 July heating degree days 0 0  
Cooling Degree Days 12 8  
Month to date cooling degree days 87 51  
Year to date cooling degree days 1462 1208  
Growing Degree Days 26 (Base 50)    
Moisture  
Dew Point 38 °F    
Average Humidity 26    
Maximum Humidity 35    
Minimum Humidity 16    
Precipitation  
Precipitation 0.00 in 0.03 in 0.72 in (1991)
Month to date precipitation 0.03 0.22  
Year to date precipitation 3.92 6.50  
Snow  
Snow 0.00 in - - ()
Month to date snowfall 0.0  
Since 1 July snowfall 0.0  
Since 1 September snowfall 0.0  
Snow Depth 0.00 in    
Sea Level Pressure  
Sea Level Pressure 29.98 in    
Wind  
Wind Speed 6 mph (SSW)    
Max Wind Speed 17 mph    
Max Gust Speed 21 mph    
Visibility 10 miles    
Events      
T = Trace of Precipitation, MM = Missing Value Source: NWS Daily Summary

Daily Weather History Graph

Daily Weather History Graph

Search for Another Location

Airport or City:

Trip Planner

Search our weather history database for the weather conditions in past years. The results will help you decide how hot, cold, wet, or windy it might be!

Date:

Astronomy

Sep. 06, 2013 Rise Set
Actual Time 6:43 AM MDT 7:25 PM MDT
Civil Twilight 6:17 AM MDT 7:51 PM MDT
Nautical Twilight 5:47 AM MDT 8:21 PM MDT
Astronomical Twilight 5:16 AM MDT 8:52 PM MDT
Moon 7:53 AM MDT (9/6) 7:57 PM MDT (9/6)
Length of Visible Light 13h 34m
Length of Day
12h 42m
New Moon, 2% of the Moon is Illuminated
Sep 6
New Moon
Sep 12
First Quarter
Sep 19
Full
Sep 26
Last Quarter
Oct 4
New

Hourly Weather History & Observations

Time (MDT) Temp. Dew Point Humidity Pressure Visibility Wind Dir Wind Speed Gust Speed Precip Events Conditions
12:52 AM 75.9 °F 32.0 °F 20% 30.01 in 10.0 mi SSE 5.8 mph - N/A   Clear
1:52 AM 72.0 °F 33.1 °F 24% 30.02 in 10.0 mi Calm Calm - N/A   Clear
2:52 AM 72.0 °F 33.1 °F 24% 30.01 in 10.0 mi North 4.6 mph - N/A   Clear
3:52 AM 71.1 °F 35.1 °F 27% 30.02 in 10.0 mi North 8.1 mph - N/A   Clear
4:52 AM 70.0 °F 36.0 °F 29% 30.02 in 10.0 mi North 8.1 mph - N/A   Clear
5:52 AM 66.9 °F 37.0 °F 33% 30.04 in 10.0 mi NNE 8.1 mph - N/A   Clear
6:52 AM 66.0 °F 37.0 °F 34% 30.06 in 10.0 mi Calm Calm - N/A   Clear
7:52 AM 66.9 °F 37.9 °F 34% 30.07 in 10.0 mi Calm Calm - N/A   Clear
8:52 AM 71.1 °F 39.0 °F 31% 30.08 in 10.0 mi Calm Calm - N/A   Clear
9:52 AM 75.0 °F 39.0 °F 27% 30.07 in 10.0 mi NW 3.5 mph - N/A   Clear
10:52 AM 78.1 °F 39.0 °F 25% 30.06 in 10.0 mi SSW 6.9 mph - N/A   Partly Cloudy
11:52 AM 82.0 °F 39.0 °F 22% 30.03 in 10.0 mi SSW 5.8 mph - N/A   Partly Cloudy
12:52 PM 84.0 °F 39.0 °F 20% 30.00 in 10.0 mi Variable 4.6 mph - N/A   Partly Cloudy
1:52 PM 87.1 °F 37.9 °F 18% 29.97 in 10.0 mi West 5.8 mph - N/A   Partly Cloudy
2:52 PM 87.1 °F 39.0 °F 18% 29.94 in 10.0 mi SW 11.5 mph 17.3 mph N/A   Partly Cloudy
3:52 PM 87.1 °F 39.0 °F 18% 29.91 in 10.0 mi SW 11.5 mph 17.3 mph N/A   Partly Cloudy
4:52 PM 89.1 °F 37.9 °F 16% 29.89 in 10.0 mi SW 9.2 mph - N/A   Partly Cloudy
5:52 PM 88.0 °F 37.9 °F 17% 29.88 in 10.0 mi SW 12.7 mph - N/A   Partly Cloudy
6:52 PM 87.1 °F 37.9 °F 18% 29.88 in 10.0 mi SSW 8.1 mph - N/A   Partly Cloudy
7:52 PM 84.9 °F 37.0 °F 18% 29.89 in 10.0 mi South 4.6 mph - N/A   Partly Cloudy
8:52 PM 79.0 °F 37.9 °F 23% 29.92 in 10.0 mi ESE 5.8 mph - N/A   Clear
9:52 PM 77.0 °F 37.0 °F 24% 29.93 in 10.0 mi ESE 5.8 mph - N/A   Clear
10:52 PM 75.9 °F 43.0 °F 31% 29.94 in 10.0 mi SE 6.9 mph - N/A   Clear
11:52 PM 73.0 °F 44.1 °F 35% 29.95 in 10.0 mi SE 6.9 mph - N/A   Clear